[[{"header":{"parameterUnit":"m.s-1","parameterCategory":1,"la1":30.2991,"la2":30.254,"lo1":-89.0895,"lo2":-89.0444,"dy":0.0017,"dx":0.0017,"nx":28,"ny":28,"refTime":"2025-01-04T03:00:00:Z","depth":0,"parameterNumber":2,"parameterNumberName":"U-component_of_WINDS"},"data":[0,0,0,0,0,0,0,0,0,0,0,0,0,0,0,0,0,0,0,0,0,0,0,0,0,0,0,0,0,0,0,0,0,0,0,0,0,0,0,0,0,0,0,0,0,0,0,0,0,0,0,0,0,0,0,0,0,0,-2.6349,-2.635,0,-2.6387,-2.6387,-2.6387,-2.6396,-2.6396,-2.6395,-2.6395,-2.6431,-2.6432,-2.6433,0,0,0,0,0,0,0,0,0,0,0,0,0,-2.6282,-2.6283,-2.6349,-2.635,-2.635,-2.6387,-2.6387,-2.6388,-2.6396,-2.6396,-2.6395,-2.6395,-2.643,-2.6432,-2.6433,0,0,0,0,0,0,0,0,0,0,0,0,0,-2.6314,-2.6283,-2.6349,-2.6359,-2.636,-2.6386,-2.6387,-2.6388,-2.6396,-2.6396,-2.6395,-2.6395,-2.643,-2.6432,-2.6433,-2.6452,0,0,-2.6439,-2.644,0,0,0,0,0,0,0,0,-2.6312,-2.6317,-2.6357,-2.6358,-2.636,-2.6386,-2.6376,-2.6409,-2.6396,-2.6382,-2.6395,-2.6395,-2.6416,-2.6419,-2.6427,-2.6454,-2.6455,-2.6439,-2.644,-2.6441,-2.6441,0,0,0,0,0,0,0,-2.631,-2.6315,-2.6364,-2.6357,-2.6359,-2.636,-2.6364,-2.6383,-2.6401,-2.6383,-2.6384,-2.6389,-2.6417,-2.6425,-2.6428,-2.6456,-2.6439,-2.6441,-2.6442,-2.6442,-2.6499,-2.6499,0,0,0,0,0,0,-2.6307,-2.6313,-2.6363,-2.6365,-2.6335,-2.6362,-2.6366,-2.6378,-2.6401,-2.6404,-2.6389,-2.6389,-2.6422,-2.6426,-2.6429,-2.6452,-2.6441,-2.6443,-2.6444,-2.6499,-2.6499,-2.65,0,0,0,0,0,0,-2.6305,-2.6311,-2.6361,-2.6339,-2.6346,-2.6363,-2.6376,-2.6379,-2.6387,-2.6405,-2.6408,-2.6394,-2.6422,-2.6426,-2.6446,-2.6453,-2.6443,-2.6445,-2.6498,-2.6499,-2.6499,-2.6498,0,0,0,0,0,0,-2.6303,-2.631,-2.6318,-2.6339,-2.6347,-2.6379,-2.6377,-2.638,-2.6391,-2.6391,-2.6411,-2.6413,-2.6422,-2.6444,-2.6448,-2.6455,-2.6446,-2.6497,-2.6498,-2.6499,-2.6497,-2.6498,-2.6499,0,0,0,0,0,-2.6301,-2.6316,-2.6319,-2.6325,-2.6357,-2.6379,-2.6383,-2.6394,-2.6391,-2.6399,-2.641,-2.6413,-2.6452,-2.6446,-2.6451,-2.6459,-2.6497,-2.6498,-2.6499,-2.6497,-2.6498,-2.6499,0,0,0,0,0,0,-2.6294,-2.6319,-2.6322,-2.6345,-2.636,-2.6381,-2.639,-2.6395,-2.641,-2.641,-2.6421,-2.6425,-2.6444,-2.6453,-2.6446,-2.6477,-2.6474,-2.6476,-2.6471,-2.6472,-2.6473,-2.647,-2.6448,0,0,0,0,0,-2.6295,-2.6312,-2.6332,-2.635,-2.6358,-2.6373,-2.6383,-2.6389,-2.6405,-2.6411,-2.6424,-2.6438,-2.6453,-2.6463,-2.6478,-2.6499,-2.6502,-2.6506,-2.6507,-2.6508,-2.6509,-2.652,-2.6522,-2.6503,-2.6503,-2.6503,0,0,-2.6298,-2.6314,-2.6323,-2.6349,-2.6362,-2.6377,-2.6378,-2.6395,-2.6406,-2.6413,-2.6433,-2.6443,-2.6459,-2.6479,-2.6489,-2.6487,-2.6516,-2.6509,-2.651,-2.6511,-2.6521,-2.6523,-2.6525,-2.6503,-2.6503,-2.6503,0,0,-2.6311,-2.6325,-2.6341,-2.6353,-2.6373,-2.6383,-2.6386,-2.6406,-2.6413,-2.6434,-2.6439,-2.6452,-2.6479,-2.649,-2.65,-2.6516,-2.6519,-2.6521,-2.6526,-2.6536,-2.6537,-2.6539,-2.6544,-2.6546,-2.6522,-2.6522,-2.6522,0,-2.6311,-2.6336,-2.6348,-2.6365,-2.6376,-2.6384,-2.64,-2.6411,-2.6434,-2.6441,-2.6439,-2.6473,-2.6484,-2.6507,-2.6511,-2.6518,-2.6522,-2.6519,-2.6536,-2.6538,-2.6539,-2.6544,-2.6546,-2.6523,-2.6523,-2.6523,-2.6523,0,-2.6335,-2.6353,-2.6363,-2.6386,-2.6398,-2.6414,-2.6428,-2.6438,-2.6444,-2.6454,-2.6474,-2.6488,-2.6506,-2.6512,-2.6517,-2.6535,-2.6534,-2.6534,-2.6531,-2.6541,-2.6546,-2.6548,-2.6523,-2.6523,-2.6523,-2.6523,0,0,-2.6344,-2.6374,-2.6378,-2.6388,-2.6409,-2.6422,-2.6439,-2.6457,-2.6466,-2.6481,-2.6494,-2.6516,-2.6517,-2.6527,-2.6534,-2.6543,-2.6555,-2.6543,-2.6543,-2.6544,-2.6574,-2.6573,-2.6575,-2.6557,-2.6557,-2.6558,-2.6572,0,-2.6359,-2.6389,-2.6401,-2.6425,-2.644,-2.6448,-2.6462,-2.6476,-2.6486,-2.65,-2.651,-2.6525,-2.6525,-2.6531,-2.6541,-2.6551,-2.6561,-2.6551,-2.6568,-2.6569,-2.6563,-2.6578,-2.6577,-2.659,-2.6574,-2.6575,-2.6575,0,-2.638,-2.6397,-2.6423,-2.6442,-2.6449,-2.6462,-2.6479,-2.6493,-2.6509,-2.6515,-2.6527,-2.6533,-2.6549,-2.6546,-2.6567,-2.656,-2.6568,-2.6574,-2.6575,-2.6576,-2.6572,-2.6579,-2.6594,-2.6596,-2.6578,-2.6578,-2.6578,0,-2.6384,-2.6412,-2.6431,-2.644,-2.6463,-2.6472,-2.6482,-2.6498,-2.6508,-2.6523,-2.6529,-2.6546,-2.6555,-2.6567,-2.6577,-2.6573,-2.6597,-2.6595,-2.6602,-2.6602,-2.6606,-2.6606,-2.6622,-2.6612,-2.6612,-2.6612,-2.6612,0,-2.6399,-2.6414,-2.6433,-2.6445,-2.6462,-2.6474,-2.6491,-2.6501,-2.6515,-2.6528,-2.6535,-2.6547,-2.656,-2.6574,-2.6581,-2.6598,-2.6602,-2.6607,-2.6608,-2.6606,-2.6605,-2.661,-2.6609,-2.6613,-2.6613,-2.6613,-2.6613,0,-2.6405,-2.6418,-2.644,-2.646,-2.6466,-2.6477,-2.6495,-2.6506,-2.6516,-2.6532,-2.6537,-2.6552,-2.6568,-2.6579,-2.66,-2.6605,-2.6622,-2.6624,-2.6617,-2.6618,-2.6624,-2.6623,-2.6645,-2.6648,-2.6636,-2.6636,-2.6636,0,-2.6413,-2.6425,-2.6447,-2.6457,-2.6467,-2.6483,-2.6494,-2.6506,-2.6517,-2.6536,-2.6544,-2.6561,-2.6575,-2.66,-2.6612,-2.6628,-2.663,-2.6636,-2.6632,-2.6629,-2.6629,-2.6628,-2.6629,-2.6636,-2.6637,-2.6637,-2.6637,0,-2.6426,-2.6432,-2.6448,-2.6466,-2.6479,-2.6493,-2.6508,-2.6515,-2.653,-2.6541,-2.6558,-2.6569,-2.659,-2.6606,-2.6623,-2.6632,-2.6637,-2.6638,-2.664,-2.6637,-2.6632,-2.6635,-2.6618,-2.6637,-2.6637,-2.6637,-2.6637,-2.6637,-2.6433,-2.6444,-2.6461,-2.6478,-2.6491,-2.6504,-2.6516,-2.6527,-2.6542,-2.6561,-2.6567,-2.6584,-2.6599,-2.6622,-2.6632,-2.6645,-2.6644,-2.6648,-2.6649,-2.6649,-2.6649,-2.6631,-2.6648,-2.6648,-2.6648,-2.6648,-2.6648,0,-2.6446,-2.6458,-2.6473,-2.6494,-2.6507,-2.6511,-2.6527,-2.6538,-2.6553,-2.6567,-2.6581,-2.66,-2.6616,-2.663,-2.6646,-2.6653,-2.6656,-2.6657,-2.6656,-2.6658,-2.6649,-2.6645,-2.6655,-2.6655,-2.6655,-2.6655,-2.6655,-2.6655,-2.6454,-2.6473,-2.6481,-2.6505,-2.6517,-2.6535,-2.6543,-2.6555,-2.6567,-2.6588,-2.6602,-2.6611,-2.6624,-2.6642,-2.6656,-2.6659,-2.6664,-2.6665,-2.6669,-2.666,-2.6659,-2.6658,-2.6654,-2.6666,-2.6666,-2.6677,-2.6678,-2.6678]},{"header":{"parameterUnit":"m.s-1","parameterCategory":1,"la1":30.2991,"la2":30.254,"lo1":-89.0895,"lo2":-89.0444,"dy":0.0017,"dx":0.0017,"nx":28,"ny":28,"refTime":"2025-01-04T03:00:00:Z","depth":0,"parameterNumber":3,"parameterNumberName":"V-component_of_WINDS"},"data":[0,0,0,0,0,0,0,0,0,0,0,0,0,0,0,0,0,0,0,0,0,0,0,0,0,0,0,0,0,0,0,0,0,0,0,0,0,0,0,0,0,0,0,0,0,0,0,0,0,0,0,0,0,0,0,0,0,0,6.2107,6.2108,0,6.213,6.2131,6.2131,6.2123,6.2123,6.2122,6.2122,6.2139,6.214,6.2141,0,0,0,0,0,0,0,0,0,0,0,0,0,6.2055,6.2056,6.2107,6.2108,6.2108,6.213,6.2131,6.2131,6.2123,6.2123,6.2122,6.2121,6.2138,6.214,6.2141,0,0,0,0,0,0,0,0,0,0,0,0,0,6.2077,6.2056,6.2107,6.2107,6.2107,6.213,6.2131,6.2131,6.2123,6.2123,6.2122,6.2121,6.2138,6.2139,6.2141,6.2164,0,0,6.2145,6.2146,0,0,0,0,0,0,0,0,6.2076,6.2079,6.2107,6.2107,6.2107,6.2123,6.2118,6.2142,6.2123,6.2117,6.2122,6.2121,6.2134,6.2135,6.2141,6.2165,6.2165,6.2145,6.2146,6.2146,6.2147,0,0,0,0,0,0,0,6.2075,6.2078,6.2116,6.2107,6.2107,6.2105,6.2107,6.2123,6.2129,6.2117,6.2117,6.212,6.2134,6.214,6.2141,6.2166,6.2145,6.2146,6.2147,6.2148,6.2215,6.2216,0,0,0,0,0,0,6.2073,6.2077,6.2115,6.2117,6.209,6.2107,6.2109,6.2119,6.2129,6.213,6.2121,6.212,6.2138,6.214,6.2142,6.2173,6.2146,6.2148,6.2149,6.2214,6.2215,6.2216,0,0,0,0,0,0,6.2072,6.2077,6.2115,6.2097,6.2102,6.2108,6.2119,6.212,6.2126,6.2131,6.2132,6.2126,6.2137,6.214,6.216,6.2174,6.2148,6.215,6.2213,6.2214,6.2216,6.2234,0,0,0,0,0,0,6.2071,6.2077,6.2085,6.2097,6.2103,6.2133,6.212,6.2121,6.2129,6.2128,6.2136,6.2137,6.2137,6.2158,6.2162,6.2175,6.2151,6.2212,6.2214,6.2215,6.2232,6.2236,6.2239,0,0,0,0,0,6.2069,6.2087,6.2086,6.209,6.2114,6.2133,6.2136,6.2138,6.213,6.2139,6.2144,6.2137,6.2172,6.216,6.2164,6.2178,6.2211,6.2213,6.2215,6.2231,6.2235,6.2239,0,0,0,0,0,0,6.2072,6.2088,6.2087,6.2109,6.2121,6.2132,6.2143,6.2142,6.2153,6.2151,6.2151,6.2153,6.2175,6.2178,6.2165,6.2204,6.219,6.2193,6.2201,6.2205,6.2208,6.2207,6.2152,0,0,0,0,0,6.2076,6.2092,6.2104,6.2123,6.2129,6.2136,6.2144,6.2145,6.2155,6.2159,6.2165,6.2174,6.2188,6.2197,6.2209,6.2233,6.2237,6.2245,6.2249,6.2252,6.2254,6.2272,6.2277,6.2224,6.2224,6.2223,0,0,6.2082,6.2093,6.2102,6.2124,6.2133,6.215,6.2139,6.2155,6.2168,6.2161,6.2182,6.2187,6.2198,6.2222,6.2232,6.2225,6.227,6.2254,6.2257,6.2257,6.2275,6.228,6.2284,6.2225,6.2225,6.2225,0,0,6.2104,6.2113,6.2132,6.2143,6.2158,6.2163,6.2168,6.2182,6.2186,6.2208,6.2205,6.2219,6.2242,6.2251,6.2259,6.2292,6.2287,6.2296,6.2313,6.2331,6.2335,6.2339,6.2353,6.2358,6.2298,6.2298,6.2298,0,6.2109,6.2135,6.2141,6.216,6.2171,6.217,6.219,6.22,6.2217,6.2225,6.2217,6.225,6.2257,6.2285,6.2294,6.2299,6.2306,6.2294,6.2334,6.2338,6.2342,6.2356,6.2361,6.2299,6.2299,6.2299,6.2299,0,6.2144,6.2162,6.2176,6.2198,6.221,6.2229,6.2238,6.225,6.2252,6.2258,6.2283,6.2292,6.2309,6.2316,6.2315,6.2346,6.2341,6.2334,6.232,6.2348,6.2361,6.2366,6.2301,6.2301,6.23,6.23,0,0,6.2162,6.2193,6.2198,6.221,6.223,6.2245,6.2266,6.2286,6.2298,6.2311,6.233,6.2352,6.2348,6.2357,6.2358,6.2373,6.2404,6.2365,6.2365,6.2374,6.2442,6.2448,6.2454,6.2401,6.2402,6.2403,6.2442,0,6.2187,6.2226,6.2235,6.2268,6.2288,6.2291,6.231,6.2324,6.2333,6.235,6.2358,6.2376,6.2367,6.2373,6.2389,6.2397,6.2418,6.2394,6.2419,6.242,6.2417,6.2461,6.2466,6.2502,6.2447,6.2448,6.2448,0,6.2219,6.224,6.2277,6.2301,6.2309,6.2326,6.2348,6.2365,6.2383,6.2388,6.2402,6.2403,6.2426,6.2413,6.2446,6.243,6.2441,6.2448,6.2449,6.2452,6.2436,6.2466,6.2513,6.2519,6.2456,6.2455,6.2455,0,6.2233,6.2269,6.2297,6.2308,6.2335,6.2348,6.2359,6.2377,6.2391,6.241,6.242,6.244,6.2451,6.2467,6.2475,6.2464,6.2509,6.2495,6.2515,6.2515,6.2523,6.2522,6.2574,6.2529,6.2529,6.2528,6.2528,0,6.226,6.2283,6.2305,6.2322,6.2349,6.236,6.2386,6.2398,6.2415,6.2435,6.2438,6.2456,6.2465,6.2486,6.2491,6.252,6.2524,6.253,6.2531,6.253,6.253,6.2537,6.2536,6.253,6.253,6.2529,6.2529,0,6.2278,6.2293,6.2325,6.2352,6.2359,6.2378,6.24,6.2418,6.2429,6.2455,6.2461,6.2477,6.2502,6.2513,6.2541,6.2545,6.2579,6.2578,6.2574,6.2575,6.2595,6.2594,6.2654,6.2664,6.2611,6.2611,6.2612,0,6.2294,6.2313,6.2344,6.236,6.2373,6.2397,6.2413,6.2426,6.2442,6.2469,6.2484,6.251,6.2531,6.2571,6.2585,6.2608,6.2608,6.2628,6.2611,6.2612,6.2611,6.2611,6.2614,6.2631,6.2631,6.2632,6.2632,0,6.2322,6.2331,6.2355,6.2384,6.2404,6.2426,6.2448,6.246,6.2477,6.2495,6.2523,6.2541,6.2574,6.26,6.2626,6.2638,6.2638,6.2638,6.2644,6.2643,6.2642,6.2646,6.2584,6.2636,6.2635,6.2635,6.2635,6.2635,6.2341,6.236,6.2387,6.2415,6.2435,6.2457,6.2477,6.2493,6.2517,6.2548,6.2554,6.2585,6.2607,6.2643,6.2656,6.2681,6.2675,6.2683,6.2686,6.2688,6.2691,6.2638,6.2685,6.2685,6.2685,6.2685,6.2685,0,6.2371,6.239,6.2417,6.2451,6.2474,6.2477,6.2503,6.2522,6.255,6.2573,6.2596,6.2631,6.2659,6.2677,6.2706,6.2722,6.2723,6.2729,6.2728,6.2731,6.2692,6.2686,6.2728,6.2728,6.2728,6.2728,6.2728,6.2728,6.2389,6.2424,6.2437,6.2482,6.2501,6.2534,6.2549,6.2571,6.259,6.263,6.2654,6.2668,6.269,6.2721,6.2748,6.2753,6.2763,6.277,6.2775,6.2738,6.2733,6.2729,6.2723,6.2772,6.2772,6.2812,6.2812,6.2812]}]]